H1 CPF 2 NER 2024 2 18 9 049 01 glonass131 H2 1301901 9131 39155 2024 2 18 0 0 0 2024 2 21 23 45 0 900 1 1 0 0 0 1 H9 10 0 60358 0.00000 0 904777.987 -14687064.579 -20805727.055 10 0 60358 900.00000 0 2530053.047 -16560946.025 -19212571.710 10 0 60358 1800.00000 0 3874302.940 -18378535.973 -17245514.000 10 0 60358 2700.00000 0 4928839.827 -20075034.244 -14943123.028 10 0 60358 3600.00000 0 5697824.195 -21587245.825 -12350422.028 10 0 60358 4500.00000 0 6197804.371 -22856185.316 -9517991.395 10 0 60358 5400.00000 0 6456736.380 -23829516.820 -6500969.584 10 0 60358 6300.00000 0 6512529.024 -24463728.119 -3357972.440 10 0 60358 7200.00000 0 6411178.562 -24725949.689 -149952.739 10 0 60358 8100.00000 0 6204573.820 -24595344.459 3060977.726 10 0 60358 9000.00000 0 5948065.631 -24064012.476 6212740.897 10 0 60358 9900.00000 0 5697903.458 -23137374.860 9244477.689 10 0 60358 10800.00000 0 5508646.737 -21834023.030 12097704.018 10 0 60358 11700.00000 0 5430658.803 -20185040.915 14717417.002 10 0 60358 12600.00000 0 5507787.187 -18232829.193 17053131.890 10 0 60358 13500.00000 0 5775325.999 -16029480.442 19059832.001 10 0 60358 14400.00000 0 6258344.265 -13634771.834 20698815.566 10 0 60358 15300.00000 0 6970449.084 -11113857.060 21938425.274 10 0 60358 16200.00000 0 7913034.889 -8534750.889 22754648.240 10 0 60358 17100.00000 0 9075050.563 -5965707.843 23131576.145 10 0 60358 18000.00000 0 10433295.404 -3472600.735 23061717.310 10 0 60358 18900.00000 0 11953233.758 -1116404.865 22546154.623 10 0 60358 19800.00000 0 13590297.229 1049110.197 21594545.427 10 0 60358 20700.00000 0 15291623.446 2979387.204 20224961.791 10 0 60358 21600.00000 0 16998162.308 4640703.778 18463572.084 10 0 60358 22500.00000 0 18647065.014 6011343.508 16344167.345 10 0 60358 23400.00000 0 20174258.656 7082266.030 13907538.777 10 0 60358 24300.00000 0 21517100.447 7857246.732 11200715.594 10 0 60358 25200.00000 0 22617001.106 8352478.531 8276075.418 10 0 60358 26100.00000 0 23421906.847 8595650.502 5190342.528 10 0 60358 27000.00000 0 23888534.182 8624540.565 2003492.080 10 0 60358 27900.00000 0 23984261.033 8485180.392 -1222418.900 10 0 60358 28800.00000 0 23688591.410 8229669.714 -4424470.557 10 0 60358 29700.00000 0 22994128.503 7913732.948 -7540124.371 10 0 60358 30600.00000 0 21907011.874 7594123.045 -10508466.335 10 0 60358 31500.00000 0 20446797.413 7325984.776 -13271422.473 10 0 60358 32400.00000 0 18645782.997 7160291.999 -15774920.377 10 0 60358 33300.00000 0 16547806.987 7141470.673 -17969971.463 10 0 60358 34200.00000 0 14206569.913 7305311.422 -19813650.363 10 0 60358 35100.00000 0 11683550.495 7677262.847 -21269950.361 10 0 60358 36000.00000 0 9045604.854 8271180.006 -22310496.762 10 0 60358 36900.00000 0 6362351.377 9088582.413 -22915103.454 10 0 60358 37800.00000 0 3703452.636 10118453.481 -23072161.753 10 0 60358 38700.00000 0 1135909.736 11337589.599 -22778854.439 10 0 60358 39600.00000 0 -1278516.662 12711483.138 -22041191.921 10 0 60358 40500.00000 0 -3485650.549 14195700.614 -20873871.341 10 0 60358 41400.00000 0 -5440912.714 15737696.139 -19299963.205 10 0 60358 42300.00000 0 -7110918.293 17278981.894 -17350433.640 10 0 60358 43200.00000 0 -8474595.464 18757562.590 -15063513.668 10 0 60358 44100.00000 0 -9523781.778 20110530.215 -12483929.706 10 0 60358 45000.00000 0 -10263276.927 21276709.215 -9662012.110 10 0 60358 45900.00000 0 -10710353.766 22199240.837 -6652700.617 10 0 60358 46800.00000 0 -10893752.063 22827998.653 -3514467.160 10 0 60358 47700.00000 0 -10852200.757 23121735.020 -308177.776 10 0 60358 48600.00000 0 -10632533.763 23049870.120 2904084.037 10 0 60358 49500.00000 0 -10287480.599 22593850.556 6060209.936 10 0 60358 50400.00000 0 -9873225.895 21748022.703 9099252.910 10 0 60358 51300.00000 0 -9446840.596 20519986.165 11962585.304 10 0 60358 52200.00000 0 -9063692.203 18930414.113 14595007.961 10 0 60358 53100.00000 0 -8774941.514 17012348.884 16945791.027 10 0 60358 54000.00000 0 -8625229.250 14810002.323 18969628.549 10 0 60358 54900.00000 0 -8650647.754 12377110.051 20627490.728 10 0 60358 55800.00000 0 -8877081.125 9774906.497 21887359.485 10 0 60358 56700.00000 0 -9318982.179 7069802.442 22724834.998 10 0 60358 57600.00000 0 -9978636.985 4330858.534 23123602.851 10 0 60358 58500.00000 0 -10845948.229 1627156.367 23075753.463 10 0 60358 59400.00000 0 -11898747.857 -974827.063 22581947.606 10 0 60358 60300.00000 0 -13103628.190 -3413735.571 21651424.049 10 0 60358 61200.00000 0 -14417259.670 -5635638.528 20301847.599 10 0 60358 62100.00000 0 -15788143.396 -7596029.990 18558998.384 10 0 60358 63000.00000 0 -17158728.438 -9261439.680 16456305.711 10 0 60358 63900.00000 0 -18467808.147 -10610588.479 14034232.707 10 0 60358 64800.00000 0 -19653097.291 -11635039.135 11339520.818 10 0 60358 65700.00000 0 -20653883.103 -12339313.395 8424306.218 10 0 60358 66600.00000 0 -21413638.993 -12740468.728 5345123.255 10 0 60358 67500.00000 0 -21882489.938 -12867150.589 2161812.918 10 0 60358 68400.00000 0 -22019423.664 -12758158.619 -1063643.000 10 0 60358 69300.00000 0 -21794151.479 -12460586.412 -4268338.981 10 0 60358 70200.00000 0 -21188536.855 -12027613.379 -7389689.263 10 0 60358 71100.00000 0 -20197527.925 -11516042.987 -10366671.645 10 0 60358 72000.00000 0 -18829551.204 -10983693.275 -13141044.970 10 0 60358 72900.00000 0 -17106347.181 -10486752.605 -15658513.913 10 0 60358 73800.00000 0 -15062252.730 -10077215.498 -17869815.704 10 0 60358 74700.00000 0 -12742959.561 -9800510.162 -19731705.111 10 0 60358 75600.00000 0 -10203800.847 -9693420.950 -21207816.443 10 0 60358 76500.00000 0 -7507638.726 -9782395.997 -22269384.309 10 0 60358 77400.00000 0 -4722442.681 -10082313.206 -22895808.233 10 0 60358 78300.00000 0 -1918661.902 -10595757.511 -23075049.999 10 0 60358 79200.00000 0 833496.785 -11312839.823 -22803856.476 10 0 60358 80100.00000 0 3466770.256 -12211564.371 -22087804.609 10 0 60358 81000.00000 0 5919406.124 -13258727.387 -20941169.230 10 0 60358 81900.00000 0 8137488.379 -14411307.203 -19386618.065 10 0 60358 82800.00000 0 10076925.454 -15618284.985 -17454741.871 10 0 60358 83700.00000 0 11705019.647 -16822817.232 -15183430.927 10 0 60358 84600.00000 0 13001555.070 -17964666.742 -12617111.992 10 0 60358 85500.00000 0 13959362.029 -18982788.295 -9805862.392 10 0 60359 0.00000 0 14584338.045 -19817959.493 -6804420.312 10 0 60359 900.00000 0 14894928.837 -20415346.421 -3671110.046 10 0 60359 1800.00000 0 14921094.069 -20726895.829 -466707.968 10 0 60359 2700.00000 0 14702805.641 -20713456.029 2746733.848 10 0 60359 3600.00000 0 14288143.246 -20346537.942 5907079.759 10 0 60359 4500.00000 0 13731069.280 -19609644.776 8953297.612 10 0 60359 5400.00000 0 13088977.220 -18499116.386 11826618.668 10 0 60359 6300.00000 0 12420116.220 -17024454.514 14471649.671 10 0 60359 7200.00000 0 11780999.045 -15208116.395 16837417.459 10 0 60359 8100.00000 0 11223900.453 -13084785.637 18878328.222 10 0 60359 9000.00000 0 10794548.973 -10700150.236 20555025.132 10 0 60359 9900.00000 0 10530106.805 -8109237.211 21835129.939 10 0 60359 10800.00000 0 10457520.743 -5374370.873 22693856.083 10 0 60359 11700.00000 0 10592311.993 -2562836.578 23114482.866 10 0 60359 12600.00000 0 10937855.205 255656.342 23088682.249 10 0 60359 13500.00000 0 11485177.403 3011610.712 22616692.019 10 0 60359 14400.00000 0 12213286.710 5638370.684 21707331.185 10 0 60359 15300.00000 0 13090019.386 8074637.593 20377855.865 10 0 60359 16200.00000 0 14073372.531 10266770.131 18653656.277 10 0 60359 17100.00000 0 15113269.729 12170774.393 16567798.125 10 0 60359 18000.00000 0 16153688.565 13753901.135 14160414.401 10 0 60359 18900.00000 0 17135063.217 14995782.941 11477956.550 10 0 60359 19800.00000 0 17996862.891 15889062.381 8572316.889 10 0 60359 20700.00000 0 18680238.281 16439482.939 5499837.276 10 0 60359 21600.00000 0 19130624.142 16665436.868 2320221.857 10 0 60359 22500.00000 0 19300186.674 16596987.144 -904625.557 10 0 60359 23400.00000 0 19150009.876 16274403.354 -4111816.535 10 0 60359 24300.00000 0 18651925.320 15746272.689 -7238720.737 10 0 60359 25200.00000 0 17789904.450 15067266.095 -10224210.270 10 0 60359 26100.00000 0 16560950.984 14295655.201 -13009879.060 10 0 60359 27000.00000 0 14975452.505 13490687.018 -15541210.844 10 0 60359 27900.00000 0 13056973.815 12709930.026 -17768670.342 10 0 60359 28800.00000 0 10841499.034 12006706.778 -19648693.839 10 0 60359 29700.00000 0 8376153.565 11427724.414 -21144557.772 10 0 60359 30600.00000 0 5717459.722 11011005.678 -22227106.917 10 0 60359 31500.00000 0 2929200.141 10784209.724 -22875327.061 10 0 60359 32400.00000 0 79979.871 10763414.594 -23076750.852 10 0 60359 33300.00000 0 -2759409.255 10952412.839 -22827689.360 10 0 60359 34200.00000 0 -5518710.255 11342549.234 -22133285.873 10 0 60359 35100.00000 0 -8130893.873 11913105.798 -21007392.369 10 0 60359 36000.00000 0 -10534709.894 12632215.770 -19472272.869 10 0 60359 36900.00000 0 -12676990.702 13458265.474 -17558141.468 10 0 60359 37800.00000 0 -14514612.271 14341722.444 -15302546.085 10 0 60359 38700.00000 0 -16016032.834 15227310.380 -12749611.915 10 0 60359 39600.00000 0 -17162347.835 16056437.338 -9949161.138 10 0 60359 40500.00000 0 -17947820.521 16769773.464 -6955727.571 10 0 60359 41400.00000 0 -18379869.762 17309869.052 -3827486.584 10 0 60359 42300.00000 0 -18478519.336 17623702.733 -625121.931 10 0 60359 43200.00000 0 -18275335.282 17665053.290 2589348.218 10 0 60359 44100.00000 0 -17811898.782 17396596.624 5753763.441 10 0 60359 45000.00000 0 -17137880.784 16791641.407 8807008.972 10 0 60359 45900.00000 0 -16308800.402 15835432.310 11690177.543 10 0 60359 46800.00000 0 -15383561.349 14525967.781 14347684.312 10 0 60359 47700.00000 0 -14421869.129 12874299.342 16728315.269 10 0 60359 48600.00000 0 -13481635.822 10904300.477 18786191.075 10 0 60359 49500.00000 0 -12616479.258 8651914.486 20481630.036 10 0 60359 50400.00000 0 -11873419.107 6163911.578 21781895.664 10 0 60359 51300.00000 0 -11290864.174 3496204.908 22661816.308 10 0 60359 52200.00000 0 -10896973.348 711792.805 23104266.298 10 0 60359 53100.00000 0 -10708457.647 -2121590.660 23100500.087 10 0 60359 54000.00000 0 -10729873.172 -4934022.840 22650332.997 10 0 60359 54900.00000 0 -10953435.145 -7656035.306 21762164.376 10 0 60359 55800.00000 0 -11359362.352 -10221245.758 20452841.267 10 0 60359 56700.00000 0 -11916739.733 -12568872.321 18747363.129 10 0 60359 57600.00000 0 -12584865.704 -14646027.419 16678430.740 10 0 60359 58500.00000 0 -13315030.457 -16409696.412 14285845.189 10 0 60359 59400.00000 0 -14052653.168 -17828318.251 11615765.738 10 0 60359 60300.00000 0 -14739690.234 -18882900.946 8719838.323 10 0 60359 61200.00000 0 -15317214.272 -19567623.345 5654209.494 10 0 60359 62100.00000 0 -15728055.252 -19889895.829 2478443.517 10 0 60359 63000.00000 0 -15919391.274 -19869875.191 -745636.984 10 0 60359 63900.00000 0 -15845177.462 -19539452.282 -3955163.986 10 0 60359 64800.00000 0 -15468307.399 -18940753.863 -7087465.956 10 0 60359 65700.00000 0 -14762412.211 -18124221.517 -10081312.716 10 0 60359 66600.00000 0 -13713217.537 -17146349.271 -12878136.627 10 0 60359 67500.00000 0 -12319397.514 -16067176.927 -15423203.709 10 0 60359 68400.00000 0 -10592886.597 -14947647.184 -17666709.169 10 0 60359 69300.00000 0 -8558633.769 -13846940.793 -19564773.458 10 0 60359 70200.00000 0 -6253808.038 -12819905.065 -21080317.346 10 0 60359 71100.00000 0 -3726488.103 -11914686.809 -22183797.449 10 0 60359 72000.00000 0 -1033891.593 -11170671.629 -22853786.894 10 0 60359 72900.00000 0 1759780.899 -10616817.763 -23077389.667 10 0 60359 73800.00000 0 4585795.303 -10270455.023 -22850480.940 10 0 60359 74700.00000 0 7373523.088 -10136598.904 -22177769.718 10 0 60359 75600.00000 0 10053158.219 -10207807.240 -21072684.036 10 0 60359 76500.00000 0 12558397.756 -10464583.243 -19557082.728 10 0 60359 77400.00000 0 14828973.962 -10876305.239 -17660801.377 10 0 60359 78300.00000 0 16812932.894 -11402640.975 -15421043.354 10 0 60359 79200.00000 0 18468565.805 -11995384.027 -12881629.767 10 0 60359 80100.00000 0 19765914.992 -12600632.328 -10092124.808 10 0 60359 81000.00000 0 20687794.077 -13161214.963 -7106855.059 10 0 60359 81900.00000 0 21230283.525 -13619263.598 -3983843.046 10 0 60359 82800.00000 0 21402684.197 -13918819.597 -783676.622 10 0 60359 83700.00000 0 21226934.423 -14008367.142 2431663.546 10 0 60359 84600.00000 0 20736518.118 -13843186.578 5599995.782 10 0 60359 85500.00000 0 19974912.150 -13387430.266 8660126.061 10 0 60360 0.00000 0 18993639.794 -12615835.401 11553011.387 10 0 60360 900.00000 0 17850011.963 -11515003.056 14222878.540 10 0 60360 1800.00000 0 16604651.965 -10084192.233 16618274.652 10 0 60360 2700.00000 0 15318904.564 -8335595.222 18693036.676 10 0 60360 3600.00000 0 14052237.219 -6294083.740 20407159.412 10 0 60360 4500.00000 0 12859739.493 -3996435.408 21727549.044 10 0 60360 5400.00000 0 11789822.838 -1490071.139 22628649.315 10 0 60360 6300.00000 0 10882214.663 1168646.484 23092929.652 10 0 60360 7200.00000 0 10166328.730 3916486.297 23111226.666 10 0 60360 8100.00000 0 9660078.922 6685710.573 22682932.504 10 0 60360 9000.00000 0 9369185.727 9406631.654 21816025.789 10 0 60360 9900.00000 0 9287005.152 12010260.512 20526943.100 10 0 60360 10800.00000 0 9394888.706 14430940.195 18840291.447 10 0 60360 11700.00000 0 9663061.535 16608856.879 16788404.731 10 0 60360 12600.00000 0 10051984.328 18492325.136 14410749.936 10 0 60360 13500.00000 0 10514144.316 20039752.342 11753191.736 10 0 60360 14400.00000 0 10996202.173 21221199.330 8867127.073 10 0 60360 15300.00000 0 11441405.873 22019470.323 5808504.414 10 0 60360 16200.00000 0 11792170.269 22430684.242 2636745.237 10 0 60360 17100.00000 0 11992712.967 22464300.992 -586411.999 10 0 60360 18000.00000 0 11991633.539 22142599.330 -3798122.642 10 0 60360 18900.00000 0 11744324.474 21499626.500 -6935676.844 10 0 60360 19800.00000 0 11215108.616 20579662.875 -9937744.822 10 0 60360 20700.00000 0 10379009.027 19435266.201 -12745599.811 10 0 60360 21600.00000 0 9223072.712 18124978.776 -15304292.244 10 0 60360 22500.00000 0 7747188.862 16710795.932 -17563749.617 10 0 60360 23400.00000 0 5964364.219 15255504.892 -19479778.026 10 0 60360 24300.00000 0 3900441.976 13820008.821 -21014943.763 10 0 60360 25200.00000 0 1593274.887 12460751.428 -22139316.168 10 0 60360 26100.00000 0 -908612.825 11227352.834 -22831056.333 10 0 60360 27000.00000 0 -3547818.029 10160557.829 -23076839.907 10 0 60360 27900.00000 0 -6260229.461 9290583.538 -22872106.175 10 0 60360 28800.00000 0 -8977484.355 8635935.739 -22221129.510 10 0 60360 29700.00000 0 -11629606.725 8202742.397 -21136913.265 10 0 60360 30600.00000 0 -14147715.903 7984630.272 -19640909.945 10 0 60360 31500.00000 0 -16466691.471 7963147.065 -17762575.105 10 0 60360 32400.00000 0 -18527683.338 8108708.084 -15538765.715 10 0 60360 33300.00000 0 -20280362.985 8382024.305 -13012996.703 10 0 60360 34200.00000 0 -21684823.422 8735948.511 -10234572.002 10 0 60360 35100.00000 0 -22713050.812 9117659.059 -7257608.597 10 0 60360 36000.00000 0 -23349909.189 9471087.151 -4139973.761 10 0 60360 36900.00000 0 -23593600.290 9739484.037 -942157.027 10 0 60360 37800.00000 0 -23455582.619 9868019.464 2273900.860 10 0 60360 38700.00000 0 -22959956.255 9806302.208 5445999.405 10 0 60360 39600.00000 0 -22142341.834 9510717.482 8512867.750 10 0 60360 40500.00000 0 -21048302.568 8946484.287 11415330.104 10 0 60360 41400.00000 0 -19731376.458 8089347.793 14097426.228 10 0 60360 42300.00000 0 -18250801.202 6926837.217 16507467.257 10 0 60360 43200.00000 0 -16669026.159 5459037.570 18599008.623 10 0 60360 44100.00000 0 -15049113.781 3698843.484 20331723.606 10 0 60360 45000.00000 0 -13452136.899 1671684.170 21672162.800 10 0 60360 45900.00000 0 -11934677.993 -585270.207 22594386.755 10 0 60360 46800.00000 0 -10546532.249 -3024389.796 23080461.080 10 0 60360 47700.00000 0 -9328707.984 -5589303.560 23120805.257 10 0 60360 48600.00000 0 -8311806.155 -8216986.979 22714388.614 10 0 60360 49500.00000 0 -7514845.586 -10840135.993 21868769.023 10 0 60360 50400.00000 0 -6944582.925 -13389732.195 20599972.212 10 0 60360 51300.00000 0 -6595356.501 -15797695.970 18932211.993 10 0 60360 52200.00000 0 -6449462.133 -17999519.841 16897454.268 10 0 60360 53100.00000 0 -6478047.199 -19936774.024 14534830.467 10 0 60360 54000.00000 0 -6642487.691 -21559380.340 11889908.889 10 0 60360 54900.00000 0 -6896192.531 -22827559.069 9013835.419 10 0 60360 55800.00000 0 -7186760.870 -23713365.852 5962358.133 10 0 60360 56700.00000 0 -7458402.337 -24201752.070 2794753.204 10 0 60360 57600.00000 0 -7654518.070 -24291101.625 -427327.757 10 0 60360 58500.00000 0 -7720332.349 -23993218.881 -3641066.309 10 0 60360 59400.00000 0 -7605461.467 -23332765.950 -6783717.248 10 0 60360 60300.00000 0 -7266308.259 -22346171.279 -9793854.254 10 0 60360 61200.00000 0 -6668177.429 -21080054.694 -12612594.548 10 0 60360 62100.00000 0 -5787018.520 -19589235.345 -15184776.077 10 0 60360 63000.00000 0 -4610719.169 -17934407.537 -17460061.618 10 0 60360 63900.00000 0 -3139890.887 -16179584.194 -19393945.698 10 0 60360 64800.00000 0 -1388111.679 -14389417.904 -20948642.577 10 0 60360 65700.00000 0 618386.317 -12626514.806 -22093836.366 10 0 60360 66600.00000 0 2841571.759 -10948856.619 -22807277.673 10 0 60360 67500.00000 0 5232975.533 -9407441.016 -23075214.853 10 0 60360 68400.00000 0 7735500.732 -8044240.506 -22892651.836 10 0 60360 69300.00000 0 10285604.004 -6890565.694 -22263428.412 10 0 60360 70200.00000 0 12815755.410 -5965900.719 -21200122.857 10 0 60360 71100.00000 0 15257072.502 -5277257.910 -19723780.542 10 0 60360 72000.00000 0 17542017.340 -4819076.088 -17863475.781 10 0 60360 72900.00000 0 19607043.212 -4573663.506 -15655717.533 10 0 60360 73800.00000 0 21395080.631 -4512163.215 -13143712.515 10 0 60360 74700.00000 0 22857759.603 -4595996.679 -10376501.948 10 0 60360 75600.00000 0 23957277.007 -4778721.566 -7407990.363 10 0 60360 76500.00000 0 24667833.326 -5008222.742 -4295886.569 10 0 60360 77400.00000 0 24976581.429 -5229142.158 -1100578.295 10 0 60360 78300.00000 0 24884050.793 -5385444.053 2116037.269 10 0 60360 79200.00000 0 24404032.388 -5423007.111 5291744.469 10 0 60360 80100.00000 0 23562931.771 -5292134.823 8365199.171 10 0 60360 81000.00000 0 22398619.585 -4949879.474 11277095.868 10 0 60360 81900.00000 0 20958828.909 -4362083.447 13971290.847 10 0 60360 82800.00000 0 19299166.966 -3505053.661 16395861.623 10 0 60360 83700.00000 0 17480823.796 -2366800.207 18504084.357 10 0 60360 84600.00000 0 15568072.247 -947788.207 20255312.645 10 0 60360 85500.00000 0 13625661.537 738828.430 21615742.908 10 0 60361 0.00000 0 11716210.728 2667501.592 22559053.465 10 0 60361 900.00000 0 9897706.925 4801102.298 23066906.880 10 0 60361 1800.00000 0 8221212.380 7092218.736 23129305.611 10 0 60361 2700.00000 0 6728870.340 9484891.555 22744795.957 10 0 60361 3600.00000 0 5452293.679 11916715.341 21920514.417 10 0 60361 4500.00000 0 4411401.685 14321223.592 20672074.837 10 0 60361 5400.00000 0 3613753.783 16630461.335 19023296.412 10 0 60361 6300.00000 0 3054408.889 18777641.282 17005775.277 10 0 60361 7200.00000 0 2716317.877 20699774.988 14658305.209 10 0 60361 8100.00000 0 2571234.619 22340170.320 12026155.749 10 0 60361 9000.00000 0 2581109.416 23650690.889 9160219.085 10 0 60361 9900.00000 0 2699908.006 24593681.788 6116040.041 10 0 60361 10800.00000 0 2875780.738 25143478.925 2952746.451 10 0 60361 11700.00000 0 3053490.791 25287435.976 -268100.071 10 0 60361 12600.00000 0 3176998.310 25026422.885 -3483710.488 10 0 60361 13500.00000 0 3192089.597 24374772.143 -6631307.379 10 0 60361 14400.00000 0 3048937.641 23359672.753 -9649370.885 10 0 60361 15300.00000 0 2704482.448 22020035.802 -12478864.984 10 0 60361 16200.00000 0 2124526.842 20404878.769 -15064417.627 10 0 60361 17100.00000 0 1285455.417 18571296.853 -17355429.036 10 0 60361 18000.00000 0 175500.619 16582107.978 -19307084.004 10 0 60361 18900.00000 0 -1204500.377 14503272.376 -20881246.261 10 0 60361 19800.00000 0 -2840891.932 12401197.508 -22047215.864 10 0 60361 20700.00000 0 -4707539.560 10340043.863 -22782333.782 10 0 60361 21600.00000 0 -6766708.849 8379146.734 -23072421.573 10 0 60361 22500.00000 0 -8970446.244 6570663.492 -22912047.923 10 0 60361 23400.00000 0 -11262402.599 4957545.578 -22304617.733 10 0 60361 24300.00000 0 -13580021.544 3571919.755 -21262283.450 10 0 60361 25200.00000 0 -15856999.391 2433944.981 -19805682.102 10 0 60361 26100.00000 0 -18025912.165 1551190.453 -17963505.132 10 0 60361 27000.00000 0 -20020898.802 918557.725 -15771911.489 10 0 60361 27900.00000 0 -21780287.863 518746.533 -13273797.390 10 0 60361 28800.00000 0 -23249058.115 323240.891 -10517938.860 10 0 60361 29700.00000 0 -24381031.110 293770.295 -7558025.374 10 0 60361 30600.00000 0 -25140705.711 384181.224 -4451604.621 10 0 60361 31500.00000 0 -25504660.090 542637.493 -1258959.852 10 0 60361 32400.00000 0 -25462465.162 714054.943 1958057.972 10 0 60361 33300.00000 0 -25017074.011 842666.933 5137220.691 10 0 60361 34200.00000 0 -24184673.624 874612.529 8217113.534 10 0 60361 35100.00000 0 -22994007.372 760439.055 11138303.862 10 0 60361 36000.00000 0 -21485198.110 457414.978 13844466.988 10 0 60361 36900.00000 0 -19708121.859 -68442.566 16283449.167 10 0 60361 37800.00000 0 -17720399.828 -840709.190 18408249.428 10 0 60361 38700.00000 0 -15585091.458 -1871331.935 20177903.557 10 0 60361 39600.00000 0 -13368182.825 -3159895.652 21558255.336 10 0 60361 40500.00000 0 -11135972.520 -4693407.878 22522602.137 10 0 60361 41400.00000 0 -8952460.943 -6446612.203 23052203.920 10 0 60361 42300.00000 0 -6876848.751 -8382818.944 23136646.714 10 0 60361 43200.00000 0 -4961245.829 -10455221.231 22774053.813 10 0 60361 44100.00000 0 -3248683.926 -12608645.049 21971140.046 10 0 60361 45000.00000 0 -1771514.294 -14781663.956 20743106.771 10 0 60361 45900.00000 0 -550256.493 -16908994.063 19113377.669 10 0 60361 46800.00000 0 407053.364 -18924072.690 17113177.947 10 0 60361 47700.00000 0 1104986.587 -20761715.715 14780962.290 10 0 60361 48600.00000 0 1560311.354 -22360744.201 12161699.792 10 0 60361 49500.00000 0 1801062.937 -23666470.993 9306027.007 10 0 60361 50400.00000 0 1865131.910 -24632942.449 6269283.360 10 0 60361 51300.00000 0 1798428.313 -25224839.628 3110446.019 10 0 60361 52200.00000 0 1652698.325 -25418956.555 -109015.890 10 0 60361 53100.00000 0 1483085.729 -25205190.413 -3326345.333 10 0 60361 54000.00000 0 1345542.240 -24586998.836 -6478735.388 10 0 60361 54900.00000 0 1294198.249 -23581302.166 -9504575.448 10 0 60361 55800.00000 0 1378808.018 -22217832.485 -12344679.098 10 0 60361 56700.00000 0 1642380.792 -20537955.403 -14943467.132 10 0 60361 57600.00000 0 2119101.620 -18593013.684 -17250079.992 10 0 60361 58500.00000 0 2832633.297 -16442262.931 -19219395.332 10 0 60361 59400.00000 0 3794874.192 -14150487.399 -20812928.705 10 0 60361 60300.00000 0 5005226.802 -11785398.002 -21999598.107 10 0 60361 61200.00000 0 6450409.383 -9414923.852 -22756336.456 10 0 60361 62100.00000 0 8104819.241 -7104513.007 -23068539.651 10 0 60361 63000.00000 0 9931432.155 -4914557.105 -22930341.824 10 0 60361 63900.00000 0 11883199.180 -2898048.729 -22344713.246 10 0 60361 64800.00000 0 13904880.736 -1098569.529 -21323380.383 10 0 60361 65700.00000 0 15935239.310 451307.646 -19886571.384 10 0 60361 66600.00000 0 17909497.110 1731137.708 -18062593.913 10 0 60361 67500.00000 0 19761954.246 2733199.359 -15887255.615 10 0 60361 68400.00000 0 21428656.776 3462546.752 -13403140.518 10 0 60361 69300.00000 0 22850002.501 3936518.491 -10658757.364 10 0 60361 70200.00000 0 23973175.758 4183728.604 -7707578.081 10 0 60361 71100.00000 0 24754310.316 4242585.610 -4606986.393 10 0 60361 72000.00000 0 25160291.508 4159405.197 -1417157.949 10 0 60361 72900.00000 0 25170124.316 3986198.420 1800105.836 10 0 60361 73800.00000 0 24775812.603 3778230.118 4982567.685 10 0 60361 74700.00000 0 23982715.117 3591451.025 8068745.536 10 0 60361 75600.00000 0 22809365.593 3479911.461 10999082.835 10 0 60361 76500.00000 0 21286766.145 3493264.498 13717076.909 10 0 60361 77400.00000 0 19457184.433 3674462.144 16170345.474 10 0 60361 78300.00000 0 17372504.928 4057739.669 18311612.853 10 0 60361 79200.00000 0 15092202.227 4666971.101 20099599.122 10 0 60361 80100.00000 0 12681019.183 5514463.626 21499797.210 10 0 60361 81000.00000 0 10206444.142 6600240.868 22485124.923 10 0 60361 81900.00000 0 7736089.280 7911845.298 23036440.876 10 0 60361 82800.00000 0 5335075.966 9424669.285 23142915.282 10 0 60361 83700.00000 0 3063532.764 11102803.080 22802248.738 10 0 60361 84600.00000 0 974307.408 12900367.255 22020734.266 10 0 60361 85500.00000 0 -889014.085 14763277.378 20813160.155 99